Torna al catalogo

STARLINK-34484

AttivoComunicazioniVLEO
NORAD 64366·PAYLOAD·🇺🇸 United States

Lanciato Jun 13, 2025 da Vandenberg Space Force Base

Loading…

Prossimi Passaggi (prossime 24 ore)

TLE

AggiornatoSource: CelesTrak SupGP

Epoca: Sep 15, 2026, 02:41 UTC

1 64366C 25126Y   26258.11229167 -.00015646  00000+0 -54416-3 0  2587
2 64366  70.0009 275.0299 0003314 266.2560   4.3074 15.29593939    19

Traccia STARLINK-34484 in tempo reale con AllMySat

Download on the App Store